Current weather by "City, St" or "zip code"  
 

Current Conditions: Santa Maria Public Airport/Capt G Allan Hancock Field, CA

Fair and Breezy


64.0 F

Last Updated on Jul 3 2022, 2:51 pm PDT
Humidity: 63%
Wind Speed: NW 21.9 G 28.8 mph
Barometer 29.98 in
Dewpoint: 51.1 F
Visibility: 10.00 mi
Precip: --
Heat Index: NA
Wind Chill: NA
Current conditions at:

Santa Maria Public Airport/Capt G Allan Hancock Field, CA (KSMX)

Lat: 34.89408 Lon: 120.45212

Local Radar Image active severe weather and emergency alerts image image weather storm and storm spotter reports image weather observation monitoring service image
Local
Radar
Active
Alerts
Storm Reports Obs
Monitoring

Sign-up For Email & Text Message Weather Alert Notification Services



Advertise Here

Observation History for Santa Maria Public Airport/Capt G Allan Hancock Field, CA


Time Wind
(mph)
Vis
(mi)
Weather Precip (in) Temperature (F) Relative
Humidity
Wind
Chill
(F)
Heat
Index
(F)
Pressure
Air Dwpt altimeter
(in)
sea level
(mb)
Rmks
2:51 pm PDT NW 21.9 G 28.8 10.00 Fair and Breezy -- 64.0 51.1 63% NA NA 29.98 1015.6
1:51 pm PDT NW 19.6 G 26.5 10.00 A Few Clouds -- 65.0 51.1 61% NA NA 30.00 1015.9
12:51 pm PDT NW 13.8 10.00 A Few Clouds -- 66.0 51.1 59% NA NA 30.00 1016.0
11:51 am PDT NW 9.2 10.00 A Few Clouds -- 64.0 51.1 63% NA NA 30.00 1016.1
10:51 am PDT NW 6.9 10.00 Partly Cloudy -- 62.0 51.1 67% 62 NA 30.00 1016.2
9:51 am PDT W 4.6 10.00 Mostly Cloudy -- 57.0 50.0 78% 57 NA 30.00 1016.2
8:51 am PDT NW 5.8 10.00 Overcast -- 57.0 50.0 78% 56 NA 30.00 1016.2
7:51 am PDT NW 4.6 10.00 Overcast -- 54.0 50.0 87% 53 NA 29.99 1015.8
6:51 am PDT 3.5 10.00 Overcast -- 54.0 50.0 87% NA NA 29.98 1015.5
5:51 am PDT NW 8.1 10.00 Overcast -- 54.0 50.0 87% 52 NA 29.98 1015.6
4:51 am PDT W 5.8 10.00 Overcast -- 55.0 51.1 87% 54 NA 29.97 1015.2
3:51 am PDT N 0.0 10.00 Overcast -- 54.0 50.0 87% NA NA 29.97 1015.2
2:51 am PDT NW 4.6 10.00 Overcast -- 54.0 50.0 87% 53 NA 29.98 1015.3
1:51 am PDT N 5.8 10.00 Overcast -- 55.0 51.1 87% 54 NA 29.99 1015.6
12:51 am PDT NW 4.6 10.00 Overcast -- 55.0 51.1 87% 54 NA 29.99 1015.6
11:51 pm PDT NW 9.2 10.00 Overcast -- 55.0 51.1 87% 52 NA 29.99 1015.9
10:51 pm PDT NW 10.4 10.00 Overcast -- 55.0 52.0 90% 52 NA 30.00 1016.1
9:51 pm PDT NW 10.4 10.00 Fair -- 54.0 51.1 90% 51 NA 29.99 1015.9
8:51 pm PDT NW 15.0 10.00 Mostly Cloudy -- 54.0 51.1 90% 50 NA 29.98 1015.4
7:51 pm PDT NW 15.0 10.00 Partly Cloudy -- 56.0 51.1 84% 52 NA 29.97 1015.1
6:51 pm PDT NW 18.4 10.00 Fair -- 59.0 52.0 78% 56 NA 29.96 1014.8
5:51 pm PDT NW 16.1 10.00 Fair -- 61.0 52.0 72% 59 NA 29.97 1015.1
4:51 pm PDT W 17.3 10.00 A Few Clouds -- 63.0 52.0 68% 61 NA 29.98 1015.4
3:51 pm PDT NW 18.4 10.00 Fair -- 65.0 51.1 61% NA NA 29.99 1015.6

Regional Weather Observation


San Luis Obispo, San Luis Obispo County-Mc Chesney Field, CA (KSBP)

Fair and Breezy
69.0 F

Santa Maria Public Airport/Capt G Allan Hancock Field, CA (KSMX)

Fair and Breezy
64.0 F

Lompoc, Vandenberg Air Force Base, CA (KVBG)

Overcast
54.0 F

Paso Robles Municipal Airport, CA (KPRB)

Fair
79.0 F

Lompoc, Lompoc Airport, CA (KLPC)

Fair
65.0 F

Santa Ynez, Santa Ynez Airport, CA (KIZA)

Fair
72.0 F

Advertise Here


Advertise Here